Simultaneous Nadir Overpasses (SNOs) Predictions

Prediction of SNOs between LANDSAT-8 and METOP-A Satellite Orbit:

Table of predicted SNOs for the next 14.0 days since TLE Epoch: 9/4/2021
Index Date (LANDSAT-8) Time (LANDSAT-8) Lat,Lon (LANDSAT-8) SZA (LANDSAT-8 ) Date (METOP-A) Time (METOP-A) Lat,Lon (METOP-A) SZA (METOP-A ) Distance(km) Time Diff (sec)
1 09/06/2021 13:29:57 81.34, 21.25 77.58 09/06/2021 13:29:40 81.33, 21.25 77.56 1.54 17
2 09/06/2021 14:19:25 -81.32,-171.55 102.48 09/06/2021 14:20:21 -81.33,-171.51 102.44 1.52 56
3 09/09/2021 09:04:14 81.32, 87.28 78.60 09/09/2021 09:04:01 81.33, 87.36 78.61 2.19 13
4 09/09/2021 09:53:41 -81.32,-105.11 101.40 09/09/2021 09:54:41 -81.32,-104.99 101.35 2.22 60
5 09/12/2021 04:38:29 81.31, 153.66 79.68 09/12/2021 04:38:20 81.33, 153.83 79.70 3.30 9
6 09/12/2021 05:27:56 -81.31, -38.72 100.31 09/12/2021 05:29:01 -81.33, -38.87 100.29 3.12 65
7 09/15/2021 00:12:44 81.33,-139.62 80.82 09/15/2021 00:12:40 81.33,-139.73 80.80 1.77 4
8 09/15/2021 01:02:12 -81.31, 27.64 99.23 09/15/2021 01:03:21 -81.32, 27.61 99.19 1.81 69
9 09/17/2021 18:57:34 -81.32, 119.03 98.11 09/17/2021 18:56:20 -81.33, 119.20 98.12 2.95 74
10 09/17/2021 19:47:00 81.32, -73.32 81.91 09/17/2021 19:47:00 81.32, -73.30 81.91 0.37 0



Historial Predications of SNOs between LANDSAT-8 and METOP-A
